TimePDT,TemperatureF,Dew PointF,Humidity,Sea Level PressureIn,VisibilityMPH,Wind Direction,Wind SpeedMPH,Gust SpeedMPH,PrecipitationIn,Events,Conditions,WindDirDegrees,DateUTC
12:53 AM,66.0,55.0,68,29.99,10.0,Calm,Calm,-,N/A,,Clear,0,2013-07-17 07:53:00
1:53 AM,64.9,55.9,73,29.99,10.0,Calm,Calm,-,N/A,,Clear,0,2013-07-17 08:53:00
2:53 AM,64.9,55.9,73,29.98,10.0,NNW,3.5,-,N/A,,Clear,340,2013-07-17 09:53:00
3:53 AM,64.9,57.9,78,29.97,10.0,WNW,3.5,-,N/A,,Clear,290,2013-07-17 10:53:00
4:53 AM,63.0,57.0,81,29.98,10.0,Calm,Calm,-,N/A,,Clear,0,2013-07-17 11:53:00
5:53 AM,63.0,57.0,81,29.99,10.0,Calm,Calm,-,N/A,,Clear,0,2013-07-17 12:53:00
6:53 AM,64.0,57.9,80,30.00,10.0,NW,3.5,-,N/A,,Clear,310,2013-07-17 13:53:00
7:53 AM,68.0,57.9,70,30.01,10.0,NW,4.6,-,N/A,,Clear,310,2013-07-17 14:53:00
8:53 AM,72.0,55.9,57,30.01,10.0,WNW,3.5,-,N/A,,Clear,300,2013-07-17 15:53:00
9:53 AM,78.1,53.1,42,30.01,10.0,Calm,Calm,-,N/A,,Clear,0,2013-07-17 16:53:00
10:53 AM,81.0,57.0,44,30.00,10.0,South,5.8,-,N/A,,Clear,180,2013-07-17 17:53:00
11:53 AM,82.9,57.0,41,30.00,10.0,South,8.1,-,N/A,,Clear,190,2013-07-17 18:53:00
12:53 PM,86.0,52.0,31,30.00,10.0,South,5.8,-,N/A,,Clear,190,2013-07-17 19:53:00
1:53 PM,87.1,54.0,32,29.99,10.0,WNW,9.2,-,N/A,,Clear,300,2013-07-17 20:53:00
2:53 PM,84.0,53.1,34,29.98,10.0,WNW,11.5,-,N/A,,Clear,300,2013-07-17 21:53:00
3:53 PM,82.9,53.1,36,29.97,10.0,WNW,17.3,-,N/A,,Clear,290,2013-07-17 22:53:00
4:53 PM,81.0,51.1,35,29.96,10.0,WNW,13.8,-,N/A,,Clear,300,2013-07-17 23:53:00
5:53 PM,79.0,54.0,42,29.95,10.0,NW,12.7,-,N/A,,Clear,310,2013-07-18 00:53:00
6:53 PM,77.0,53.1,43,29.95,10.0,NW,10.4,-,N/A,,Clear,310,2013-07-18 01:53:00
7:53 PM,73.0,51.1,46,29.96,10.0,WNW,9.2,-,N/A,,Clear,300,2013-07-18 02:53:00
8:53 PM,70.0,52.0,53,29.97,10.0,WNW,8.1,-,N/A,,Clear,300,2013-07-18 03:53:00
9:53 PM,70.0,53.1,55,29.99,10.0,NW,4.6,-,N/A,,Clear,310,2013-07-18 04:53:00
10:53 PM,69.1,52.0,54,29.99,10.0,Calm,Calm,-,N/A,,Clear,0,2013-07-18 05:53:00
11:53 PM,66.9,57.0,70,29.98,10.0,NNW,4.6,-,N/A,,Clear,330,2013-07-18 06:53:00